Regional Weather Roundup
Issued by NWS

Home | Current Version | Previous Version | Text Only | Print | Product List | Glossary On
Versions: 1 2 3 4 5 6 7 8 9 10 11 12 13 14 15 16 17 18 19 20 21 22 23 24 25 26 27 28 29 30 31 32 33 34 35 36 37 38 39 40 41 42 43 44 45 46 47 48 49 50
383
ASUS44 KLIX 201501
RWRLA
LOUISIANA WEATHER ROUNDUP
NATIONAL WEATHER SERVICE NEW ORLEANS LA
1000 AM CDT WED AUG 20 2014

NOTE: "FAIR" INDICATES FEW OR NO CLOUDS BELOW 12,000 FEET WITH NO
      SIGNIFICANT WEATHER AND/OR OBSTRUCTIONS TO VISIBILITY.
      SKY/WX - SKY CONDITION AND SIGNIFICANT WEATHER.
      TMP - AIR TEMPERATURE.    DP   - DEWPOINT TEMPERATURE.
      RH  - RELATIVE HUMIDITY.  PRES - PRESSURE.
      HX  - HEAT INDEX.         WCI  - WIND CHILL INDEX.

*  THESE STATIONS ARE NOT NWS OR FAA STATIONS AND ARE NOT UNDER
   NWS QUALITY CONTROL.

LAZ040-048-061>063-065-066-069-201600-
SOUTHEAST LOUISIANA

CITY           SKY/WX    TMP DP  RH WIND       PRES   REMARKS
N.O. AUDUBON   NOT AVBL
N.O. INTL ARPT PTSUNNY   88  77  69 S6        30.07R HX 100
N.O. LAKEFRONT SUNNY    N/A N/A N/A NE6       30.08R
N.O. DOWNTOWN* FAIR      88  73  62 S5        30.08S HX  96
SLIDELL        MOSUNNY   86  76  71 CALM      30.08R HX  96
BATON ROUGE    MOSUNNY   87  75  67 VRB3      30.07R HX  96
BOOTHVILLE     SUNNY     88  76  67 S6        30.09R HX  99
BELLE CHASSE   PTSUNNY   87  74  64 CALM      30.07R HX  95
BOGALUSA*      FAIR      86  75  68 W3        30.10S HX  95
GALLIANO*      NOT AVBL
NEW ROADS*     FAIR      84  77  78 CALM      30.07R
GONZALES*      FAIR      87  78  76 SE3       30.06R HX 100
HAMMOND*       NOT AVBL
HOUMA*         MOSUNNY   90  73  58 S5        30.07R HX  98
PORT FOURCHON* MOSUNNY   90  77  66 SW8       30.09R HX 102

$$

LAZ041-044-053-054-201600-
SOUTHWEST LOUISIANA

CITY           SKY/WX    TMP DP  RH WIND       PRES   REMARKS
LAKE CHARLES   SUNNY     86  79  79 S5        30.02S HX  99
LAFAYETTE      SUNNY     85  78  80 VRB3      30.05R HX  96
PATTERSON      MOSUNNY  N/A N/A N/A MISG        N/A
SALT POINT       N/A     91  79  67 VRB5      30.05R HX 107
NEW IBERIA     SUNNY     88  78  72 CALM      30.05S HX 101
CHENAULT AIRPK NOT AVBL

$$

LAZ027-028-201600-
CENTRAL LOUISIANA

CITY           SKY/WX    TMP DP  RH WIND       PRES   REMARKS
FORT POLK      SUNNY     85  75  72 S8        30.04R
ALEXANDRIA INT SUNNY     83  74  74 S5        30.04R
ALEXANDRIA     SUNNY     85  75  72 CALM      30.06R

$$

LAZ001-002-201600-
NORTHWEST LOUISIANA

CITY           SKY/WX    TMP DP  RH WIND       PRES   REMARKS
SHREVEPORT     MOSUNNY   83  75  77 SW8       30.02S
BARKSDALE AFB  MOSUNNY   84  73  71 S8        30.03S
DTN SHREVEPORT MOSUNNY   83  73  72 SW10      30.03R

$$

LAZ014-016-201600-
NORTHEAST LOUISIANA

CITY           SKY/WX    TMP DP  RH WIND       PRES   REMARKS
MONROE         MOSUNNY   80  72  76 CALM      30.07R
TALLULAH       SUNNY     85  71  63 VRB6      30.08R

$$




USA.gov is the U.S. government's official web portal to all federal, state and local government web resources and services.